FW3063 Weather Reports


time (UTC)temp
C
wind
direction
speed
KPH
gust
KPH
rain 1hr
cm
rain 24hr
cm
rain mn
cm
humidity
%
barometer
mb
20260906173418 24 147 3.2 4.8 0.00 0.00 0.00 80 1020.7
20260906172427 24 83 3.2 6.4 0.00 0.00 0.00 80 1020.7
20260906171417 23 129 3.2 6.4 0.00 0.00 0.00 81 1020.7
20260906170456 24 158 4.8 9.7 0.00 0.00 0.00 79 1020.9
20260906165417 25 140 3.2 6.4 0.00 0.00 0.00 78 1021.3
20260906164424 23 119 4.8 11.3 0.00 0.00 0.00 81 1021.1
20260906163418 23 144 3.2 6.4 0.00 0.00 0.00 83 1021.1
20260906162426 23 102 1.6 4.8 0.00 0.00 0.00 82 1021.0
20260906161447 23 152 3.2 6.4 0.00 0.00 0.00 84 1021.1
20260906160425 23 138 1.6 4.8 0.00 0.00 0.00 85 1021.2
20260906155417 23 146 3.2 6.4 0.00 0.00 0.00 85 1021.2
20260906154431 23 143 1.6 4.8 0.00 0.00 0.00 85 1021.1
20260906153423 22 163 4.8 6.4 0.00 0.00 0.00 88 1021.3
20260906152445 21 160 3.2 6.4 0.00 0.00 0.00 90 1021.5
20260906151421 21 172 6.4 11.3 0.00 0.00 0.00 91 1021.6
20260906150428 21 131 3.2 12.9 0.00 0.00 0.00 92 1021.5
20260906145450 21 144 8.0 12.9 0.00 0.00 0.00 93 1021.5
20260906144458 21 145 6.4 12.9 0.00 0.00 0.00 93 1021.3
20260906143424 21 153 1.6 3.2 0.00 0.00 0.00 93 1021.1
20260906142445 21 140 3.2 9.7 0.00 0.00 0.00 93 1021.5
20260906141523 21 194 0.0 1.6 0.00 0.00 0.00 94 1021.3
20260906140415 21 134 6.4 12.9 0.00 0.00 0.00 93 1021.2
20260906135423 20 131 4.8 9.7 0.00 0.00 0.00 94 1021.5
20260906134516 20 171 1.6 3.2 0.00 0.00 0.00 95 1021.1
20260906133423 21 129 3.2 9.7 0.00 0.00 0.00 95 1021.2
20260906132415 20 158 1.6 6.4 0.00 0.00 0.00 96 1020.7
20260906131422 20 141 1.6 3.2 0.00 0.00 0.00 96 1020.8
20260906130430 20 136 1.6 4.8 0.00 0.00 0.00 97 1020.7
20260906125421 20 131 0.0 3.2 0.00 0.00 0.00 97 1020.8
20260906124430 20 164 1.6 3.2 0.00 0.00 0.00 97 1020.7
20260906123423 20 145 0.0 3.2 0.00 0.00 0.00 98 1020.7
20260906122431 20 114 0.0 1.6 0.00 0.00 0.00 98 1020.6
20260906121422 20 0.0 0.0 0.00 0.00 0.00 97 1020.4
20260906120428 20 0.0 0.0 0.00 0.00 0.00 97 1020.5
20260906115453 20 0.0 0.0 0.00 0.00 0.00 97 1020.4
20260906114430 20 0.0 0.0 0.00 0.00 0.00 97 1020.3
20260906113423 20 182 0.0 1.6 0.00 0.00 0.00 97 1020.2
20260906112430 20 174 1.6 3.2 0.00 0.00 0.00 97 1020.0
20260906111422 20 173 1.6 1.6 0.00 0.00 0.00 97 1020.0
20260906110430 20 175 1.6 3.2 0.00 0.00 0.00 97 1019.9
20260906105422 20 0.0 0.0 0.00 0.00 0.00 97 1020.0
20260906104429 20 173 1.6 4.8 0.00 0.00 0.00 97 1020.0
20260906103422 20 174 3.2 4.8 0.00 0.00 0.00 97 1020.0
20260906102430 20 182 0.0 1.6 0.00 0.00 0.00 97 1019.9
20260906101422 20 162 1.6 4.8 0.00 0.00 0.00 97 1019.9
20260906100430 20 162 0.0 4.8 0.00 0.00 0.00 97 1019.8
20260906095450 20 174 0.0 1.6 0.00 0.00 0.00 97 1019.4
20260906094428 20 158 0.0 3.2 0.00 0.00 0.00 97 1019.1
20260906093424 20 184 0.0 3.2 0.00 0.00 0.00 97 1019.2
20260906092415 20 147 0.0 3.2 0.00 0.00 0.00 97 1019.1
20260906091521 20 173 0.0 3.2 0.00 0.00 0.00 96 1019.1
20260906090458 20 148 3.2 4.8 0.00 0.00 0.00 96 1019.2
20260906085454 20 159 1.6 3.2 0.00 0.00 0.00 96 1019.1
20260906084416 21 118 0.0 1.6 0.00 0.00 0.00 95 1019.0
20260906083424 21 164 0.0 3.2 0.00 0.00 0.00 95 1019.0
20260906082516 21 83 0.0 1.6 0.00 0.00 0.00 95 1018.9
20260906081424 21 109 1.6 4.8 0.00 0.00 0.00 95 1018.9
20260906080416 21 151 1.6 3.2 0.00 0.00 0.00 94 1018.9
20260906075424 21 108 1.6 3.2 0.00 0.00 0.00 95 1018.9
20260906074416 21 119 0.0 1.6 0.00 0.00 0.00 94 1019.1
20260906073424 21 160 0.0 1.6 0.00 0.00 0.00 94 1019.2
20260906072416 21 0.0 0.0 0.00 0.00 0.00 94 1019.4
20260906071424 21 175 0.0 1.6 0.00 0.00 0.00 93 1019.3
20260906070446 21 156 1.6 4.8 0.00 0.00 0.00 93 1019.6
20260906065423 21 171 0.0 3.2 0.00 0.00 0.00 93 1019.5
20260906064416 21 0.0 0.0 0.00 0.00 0.00 92 1019.3
20260906063422 21 182 0.0 1.6 0.00 0.00 0.00 92 1019.4
20260906062431 22 167 0.0 3.2 0.00 0.00 0.00 92 1019.4
20260906061423 22 0.0 0.0 0.00 0.00 0.00 92 1019.5
20260906060501 22 0.0 0.0 0.00 0.00 0.00 92 1019.6
20260906055453 22 0.0 0.0 0.00 0.00 0.00 92 1019.4
20260906054430 22 0.0 0.0 0.00 0.00 0.00 92 1019.3
20260906053453 21 182 1.6 1.6 0.00 0.00 0.00 92 1019.4
20260906052415 22 165 1.6 3.2 0.00 0.00 0.00 91 1019.4
20260906051423 22 0.0 0.0 0.00 0.00 0.00 91 1019.6
20260906050415 22 0.0 0.0 0.00 0.00 0.00 91 1019.6
20260906045423 22 0.0 0.0 0.00 0.00 0.00 91 1019.6
20260906044431 22 0.0 0.0 0.00 0.00 0.00 91 1019.7
20260906043453 22 0.0 0.0 0.00 0.00 0.00 92 1019.8
20260906042445 21 0.0 0.0 0.00 0.00 0.00 92 1019.8
20260906041423 21 0.0 0.0 0.00 0.00 0.00 91 1019.8
20260906040415 21 0.0 0.0 0.00 0.00 0.00 91 1019.9
20260906035423 21 0.0 0.0 0.00 0.00 0.00 91 1019.9
20260906034500 21 0.0 0.0 0.00 0.00 0.00 91 1019.9
20260906033423 21 0.0 0.0 0.00 0.00 0.00 90 1019.9
20260906032415 22 0.0 0.0 0.00 0.00 0.00 89 1019.7
20260906031453 22 0.0 0.0 0.00 0.00 0.00 88 1019.8
20260906030459 22 0.0 0.0 0.00 0.00 0.00 87 1019.8
20260906025453 22 0.0 0.0 0.00 0.00 0.00 87 1019.9
20260906024446 22 206 0.0 1.6 0.00 0.00 0.00 87 1019.9
20260906023423 22 0.0 0.0 0.00 0.00 0.00 86 1019.6
20260906022415 23 0.0 0.0 0.00 0.00 0.00 85 1019.2
20260906021423 22 184 0.0 1.6 0.00 0.00 0.00 85 1019.2
20260906020415 22 0.0 0.0 0.00 0.00 0.00 84 1019.1
20260906015423 23 0.0 0.0 0.00 0.00 0.00 82 1018.7
20260906014415 23 188 0.0 1.6 0.00 0.00 0.00 82 1018.3
20260906013423 23 176 0.0 1.6 0.00 0.00 0.00 81 1018.1
20260906012415 24 149 3.2 6.4 0.00 0.00 0.00 81 1017.9
20260906011423 24 141 1.6 3.2 0.00 0.00 0.00 82 1017.7
20260906010422 25 137 4.8 9.7 0.00 0.00 0.00 81 1017.8
20260906005430 25 167 4.8 12.9 0.00 0.00 0.00 80 1017.6
20260906004422 25 156 3.2 9.7 0.00 0.00 0.00 79 1017.3
20260906003500 26 147 3.2 6.4 0.00 0.00 0.00 77 1017.1
20260906002422 26 155 1.6 4.8 0.00 0.00 0.00 74 1017.1
20260906001430 26 139 3.2 6.4 0.00 0.00 0.00 73 1017.3
20260906000422 27 148 1.6 4.8 0.00 0.00 0.00 71 1017.2
20260905235428 27 147 1.6 6.4 0.00 0.00 0.00 70 1016.9
20260905234420 27 139 3.2 9.7 0.00 0.00 0.00 68 1016.9
20260905233429 28 157 1.6 4.8 0.00 0.00 0.00 67 1016.7
20260905232420 28 76 3.2 4.8 0.00 0.00 0.00 66 1016.6
20260905231423 28 68 3.2 4.8 0.00 0.00 0.00 65 1016.7
20260905230415 28 102 1.6 4.8 0.00 0.00 0.00 64 1016.5
20260905225453 29 81 3.2 4.8 0.00 0.00 0.00 63 1016.3
20260905224431 29 92 3.2 6.4 0.00 0.00 0.00 63 1016.3
20260905223423 29 86 3.2 4.8 0.00 0.00 0.00 63 1016.5
20260905222415 30 95 1.6 6.4 0.00 0.00 0.00 63 1016.6
20260905221423 30 81 3.2 3.2 0.00 0.00 0.00 63 1016.6
20260905220445 29 131 1.6 4.8 0.00 0.00 0.00 62 1016.6
20260905215423 28 76 3.2 9.7 0.00 0.00 0.00 64 1016.4
20260905214430 28 78 4.8 9.7 0.00 0.00 0.00 65 1016.6
20260905213423 28 95 3.2 6.4 0.00 0.00 0.00 65 1016.8
20260905212415 28 74 4.8 6.4 0.00 0.00 0.00 66 1016.8
20260905211423 28 86 3.2 6.4 0.00 0.00 0.00 66 1016.7
20260905210445 28 66 3.2 6.4 0.00 0.00 0.00 68 1016.8
20260905205422 28 74 3.2 6.4 0.00 0.00 0.00 67 1017.4
20260905204430 28 97 3.2 4.8 0.00 0.00 0.00 69 1017.7
20260905203422 27 93 3.2 3.2 0.00 0.00 0.00 71 1017.9
20260905202446 27 116 1.6 4.8 0.00 0.00 0.00 71 1018.0
20260905201423 27 92 1.6 3.2 0.00 0.00 0.00 70 1018.2
20260905200415 27 177 0.0 1.6 0.00 0.00 0.00 70 1018.4
20260905195423 28 95 1.6 4.8 0.00 0.00 0.00 71 1018.5
20260905194430 28 154 3.2 9.7 0.00 0.00 0.00 70 1018.7
20260905193422 27 159 4.8 6.4 0.00 0.00 0.00 70 1018.7
20260905192416 27 149 4.8 11.3 0.00 0.00 0.00 71 1018.8
20260905191424 27 178 1.6 3.2 0.00 0.00 0.00 70 1018.7
20260905190416 27 153 1.6 4.8 0.00 0.00 0.00 73 1018.8
20260905185424 27 154 1.6 3.2 0.00 0.00 0.00 72 1018.8
20260905184416 27 185 3.2 4.8 0.00 0.00 0.00 75 1018.9
20260905183424 27 132 0.0 1.6 0.00 0.00 0.00 74 1018.8
20260905182446 27 168 4.8 9.7 0.00 0.00 0.00 74 1019.0
20260905181424 26 0.0 0.0 0.00 0.00 0.00 77 1019.0
20260905180416 25 152 0.0 1.6 0.00 0.00 0.00 80 1018.8
20260905175423 25 0.0 0.0 0.00 0.00 0.00 80 1019.2
20260905174416 26 118 1.6 3.2 0.00 0.00 0.00 80 1019.5